Content
SEND FEEDBACK

Daily
Averages
Monthly
Summary
United States of America

UPI, GUAM


Home > North America > United States > Guam
Elevation: 53 feet     Latitude: 13 34N     Longitude: 144 55E

WEATHER
 
SELECT A DAY
Number of Records: 215,541;   Date Range: 1/1/95 - 12/18/14
 
SHARE

PRINT THIS DATA

[ ← Previous Day ]
WEATHER ALMANAC - AUGUST 27, 2014
[ Next Day → ]
[ °C ]   °F
Weather ElementAverageHighLow
Temperature79.3 °F88.2 °F (12:54 pm) (12:24 pm)
Dewpoint73.1 °F77.5 °F (12:54 pm) (7:00 pm)
Humidity81.6 %95 % (12:54 am)64 % (3:54 pm)
Barometer29.83 in29.90 in (12:08 am)29.78 in (2:54 pm)
Wind Speed7.2 mph15 mph (10:28 am)
Wind Gust20.7 mph (10:28 am)
Weather ElementAverage
Visibility9.8 mi
Wind DirectionENE (81.4 °)

Weather ElementTotal
Precipitation0.72 in
Heating Degree Days20.9 (Base 65)
Averaged from 29 records on August 27, 2014
WEATHER CONDITIONS BREAKOUT
WIND DIRECTION BREAKOUT
WEATHER BY HOUR - AUGUST 27, 2014
[ °C ]   °F
Local TimeTemperatureDewpointHumidityBarometerVisibilityWind DirectionWind SpeedGust SpeedPrecipitationEventsConditions
12:54 AM77.4 °F75.9 °F95 %29.81 in10.0 miCalmClear
1:54 AM78.6 °F75.9 °F91 %29.80 in10.0 miCalmMostly Cloudy
2:54 AM78.6 °F75.9 °F91 %29.79 in10.0 miCalmMostly Cloudy
3:54 AM77.7 °F75.9 °F94 %29.78 in10.0 miCalmClear
4:54 AM78.3 °F75.9 °F92 %29.78 in10.0 miENE (70°)4.6 mphPartly Cloudy
5:54 AM78.8 °F75.2 °F89 %29.82 in10.0 miNE (50°)5.8 mphPartly Cloudy
6:54 AM78.4 °F75.9 °F92 %29.82 in10.0 miEast (80°)4.6 mphScattered Clouds
7:54 AM80.2 °F77.0 °F90 %29.84 in10.0 miSE (140°)5.8 mphScattered Clouds
8:54 AM81.7 °F75.0 °F80 %29.84 in10.0 miEast (100°)8.1 mphPartly Cloudy
9:54 AM85.8 °F75.9 °F72 %29.84 in10.0 miEast (100°)11.5 mph20.7 mphPartly Cloudy
10:54 AM86.0 °F75.9 °F72 %29.84 in10.0 miEast (100°)11.5 mphMostly Cloudy
11:54 AM87.8 °F77.0 °F70 %29.82 in10.0 miEast (100°)11.5 mphPartly Cloudy
12:24 PM0.0 °F0.0 °F29.84 in10.0 miEast (100°)12.7 mph19.6 mphMostly Cloudy
12:39 PM87.8 °F77.0 °F70 %29.84 in10.0 miEast (90°)15.0 mph19.6 mphScattered Clouds
12:54 PM88.2 °F77.5 °F71 %29.81 in10.0 miEast (90°)13.8 mph0.00 inRainLight Rain
1:54 PM88.0 °F75.0 °F65 %29.80 in10.0 miESE (110°)9.2 mph0.00 inPartly Cloudy
2:54 PM87.3 °F75.9 °F69 %29.79 in10.0 miEast (90°)13.8 mphPartly Cloudy
3:54 PM87.4 °F73.9 °F64 %29.78 in10.0 miEast (90°)11.5 mphClear
4:54 PM86.4 °F75.0 °F69 %29.78 in10.0 miEast (100°)11.5 mphPartly Cloudy
5:54 PM85.5 °F75.0 °F71 %29.83 in10.0 miEast (80°)10.4 mphPartly Cloudy
6:54 PM82.8 °F75.9 °F80 %29.83 in10.0 miEast (80°)6.9 mphClear
7:54 PM81.9 °F75.9 °F82 %29.84 in10.0 miEast (80°)6.9 mphClear
8:54 PM81.9 °F75.0 °F80 %29.86 in10.0 miEast (90°)6.9 mphPartly Cloudy
9:54 PM81.7 °F75.0 °F80 %29.87 in10.0 miEast (80°)4.6 mphPartly Cloudy
10:38 PM78.8 °F75.2 °F89 %29.90 in4.0 miSSE (150°)5.8 mph0.22 inRainRain
10:50 PM78.8 °F75.2 °F89 %29.90 in10.0 miESE (110°)4.6 mph0.25 inMostly Cloudy
10:54 PM78.1 °F75.9 °F93 %29.87 in10.0 miEast (100°)3.5 mph0.25 inMostly Cloudy
11:16 PM77.0 °F75.2 °F94 %29.89 in10.0 miESE (110°)3.5 mphScattered Clouds
11:54 PM78.4 °F75.9 °F92 %29.86 in10.0 miENE (70°)3.5 mphScattered Clouds
Hourly data recorded from PGUM, located miles away from Upi, Guam







STORIES FROM OUR PARTNERS